Location: Newark
(41.8083°N, 72.2500°W)
Time: 21:14:25
(UTC+00:00)

Tiros 1 - Visible Passes

Search period start: 06 December 2021 00:00
Search period end: 16 December 2021 00:00
Orbit: 630 x 663 km, 48.4° (Epoch: 05 December)

Date Brightness Start Highest point End Pass type
(mag) Time Alt. Az. Time Alt. Az. Time Alt. Az.
06 Dec 8.6 00:06:09 10° W 00:09:04 34° WNW 00:09:04 34° WNW visible
06 Dec 7.1 22:49:35 10° WSW 22:54:13 78° NNW 22:56:16 33° NE visible
07 Dec 9.6 00:32:30 10° WNW 00:33:56 18° WNW 00:33:56 18° WNW visible
07 Dec 7.6 23:15:46 10° W 23:20:17 50° NNW 23:21:06 44° NNE visible
08 Dec 7.1 21:59:15 10° WSW 22:03:53 83° NNW 22:08:15 12° ENE visible
08 Dec 8.2 23:42:07 10° WNW 23:45:54 37° NNW 23:45:54 37° NNW visible
09 Dec 7.6 22:25:23 10° W 22:29:55 52° NNW 22:33:02 19° NE visible
10 Dec 9.0 00:08:25 10° WNW 00:10:41 24° NW 00:10:41 24° NW visible
10 Dec 7.9 22:51:44 10° WNW 22:56:06 39° N 22:57:49 28° NE visible
11 Dec 9.8 00:34:32 10° WNW 00:35:28 15° NW 00:35:28 15° NW visible
11 Dec 7.9 23:18:03 10° WNW 23:22:21 36° N 23:22:36 36° N visible
12 Dec 7.9 22:01:21 10° W 22:05:43 40° N 22:09:45 12° ENE visible
12 Dec 8.3 23:44:12 10° WNW 23:47:24 34° NNW 23:47:24 34° NNW visible
13 Dec 8.0 22:27:40 10° WNW 22:31:58 36° N 22:34:35 20° NE visible
14 Dec 9.0 00:10:10 10° WNW 00:12:14 25° NW 00:12:14 25° NW visible
14 Dec 7.8 22:53:50 10° WNW 22:58:12 39° N 22:59:28 33° NE visible
15 Dec 9.7 00:36:04 10° WNW 00:37:08 17° WNW 00:37:08 17° WNW visible
15 Dec 7.3 23:19:49 10° WNW 23:24:23 53° NNE 23:24:25 53° NNE visible
